Погода в Угуте

Погода в Угуте : погода сейчас, прогноз погоды и архив. Всё, что Вы хотите узнать о погоде в Угуте!

Поиск расширенной информации на нашем сайте:

Другие новости

Новости СМИ2

Главная страница сайта

Новости сайта

03.07.2017

Напоминаем, что на нашем специализированном сайте Метеоцентр.Азия вы можете получить высокодетализированные автоматические прогнозы погоды по пунктам России, СНГ и мира в авиационном формате (включающие направление и скорость ветра, видимость, явления погоды, количество и форму облачности, нижнюю и верхнюю границу облачности).

Рекомендуем: строительство каркасных домов Екатеринбург

Погода в Угуте - сегодня

Время (UTC), дата Ветер
(°,м/с) 
Видим.   Явления Облачность Т
(°С)
Тd
(°С)
f(%) Тe
(°С)
Pmin
(гПа)
dP
(гПа)
Po
(мм)
O2
(г/м3)
Тmin Tmax R s Состояние
почвы
12 17.02.18 220 (ЮЗ) 10 км    3/0 верхняя 
[Ci fib]
-9 -12.6 75 -12  1029.3  -0.3  767  321           
15 17.02.18 220 (ЮЗ) 10 км    ясно 
-10.7 -13.6 79 -14  1028.9  -0.4  767  323    -7.7  0.0     
18 17.02.18 210 (ЮЗ) 10 км    ясно 
-13.6 -15.5 86 -16  1028.3  -0.7  766  326           
21 17.02.18 220 (ЮЗ) 10 км    6/0 верхняя 
[Ci fib]
-13.9 -16.1 83 -16  1027.4  -1  765  326           
00 18.02.18 210 (ЮЗ) 10 км    3/0 верхняя 
[Ci fib]
-12.3 -14.6 83 -14  1026.2  -1.1  765  324           
03 18.02.18 210 (ЮЗ) 10 км    6/0 средняя, верхняя 
[Ac trans|Ci fib]
-13.3 -15.1 86 -15  1025.9  -0.3  764  325  -15.1      49  равномерный
сухой снег
100% 
06 18.02.18 230 (ЮЗ) 10 км  {снег}  3/0 верхняя 
[Cc]
-10.2 -13.3 78 -13  1025.1  -0.7  764  321           
09 18.02.18 230 (ЮЗ) 10 км    9/5 1000 м средняя 
[Sc|Ac trans]
-7.5 -11.1 75 -10  1024.9  -0.2  764  318           
12 18.02.18 210 (ЮЗ) 10 км  в посл. час ливневой снег  6/3 600 м кучево-дожд., средняя, верхняя 
[Cb cap|Ac trans|Ci fib]
-8.1 -10.6 82 -10  1024.8  764  318           
18 18.02.18 230 (ЮЗ) 10 км    3/0 верхняя 
[Ci fib]
-10.7 -12.5 87 -14  1024.3  -0.4  763  321           
21 18.02.18 230 (ЮЗ) 10 км  слаб. снег  10/3 1000 м средняя 
[Sc|Ac As]
-8.1 -9.9 87 -11  1024.1  -0.2  763  318           
00 19.02.18 220 (ЮЗ) 10 км  {снег}  10/0 средняя 
[Ac As]
-8.8 -10.2 90 -10  1024.3  0.2  763  319           
03 19.02.18 230 (ЮЗ) 10 км  слаб. снег  10/0 средняя 
[Ac As]
-7.5 -9.2 88 -10  1024  -0.2  763  317  -10.8    0.6  50  равномерный
сухой снег
100% 
06 19.02.18 220 (ЮЗ) 10 км  слаб. ливневой снег  9/8 600 м кучево-дожд., средняя 
[Cb cap|Ac trans]
-6.2 -8.2 86 -9  1023.6  -0.4  763  315           
09 19.02.18 230 (ЮЗ) 10 км  слаб. ливневой снег  10/8 600 м кучево-дожд., средняя 
[Cb cap|Ac As]
-5.4 -8.2 81 -8  1024.6  764  315           
12 19.02.18 260 (З) 10 км  в посл. час ливневой снег  10/4 600 м кучево-дожд., средняя 
[Cb cap|Ac As]
-7.3 -9.2 86 -9  1026  1.4  765  318           
15 19.02.18 230 (ЮЗ) 10 км  слаб. ливневой снег  10/8 600 м кучево-дожд., средняя 
[Cb cap|Ac As]
-8.6 -10.2 88 -8  1026.8  0.8  765  319    -5.1  0.7     
18 19.02.18 210 (ЮЗ) 10 км  {ливн. осадки}  6/0 средняя 
[Ac trans]
-11.2 -12.8 88 -11  1027  765  323           
21 19.02.18 тихо ()   10 км    10/0 средняя 
[Ac As]
-14.2 -16.2 85 -14  1026.7  -0.3  765  327           
00 20.02.18 170 (Ю) 4000 м  слаб. снег  10/0 средняя 
[As op]
-10.1 -11.7 88 -10  1026.1  -0.5  765  321           
03 20.02.18 тихо ()   4000 м  слаб. снег  10/0 средняя 
[As trans]
-10.4 -12 88 -10  1025.3  -0.8  764  321  -14.3    0.8  50  равномерный
сухой снег
100% 
06 20.02.18 210 (ЮЗ) 10 км  {снег}  10/0 средняя 
[As trans]
-7.7 -10.1 83 -9  1024.2  -1.1  763  317           
09 20.02.18 220 (ЮЗ) 10 км  слаб. снег  10/0 средняя 
[Ac As]
-5.8 -9.5 75 -7  1023.9  -0.2  763  315           
12 20.02.18 230 (ЮЗ) 10 км  слаб. ливневой снег  10/8 600 м кучево-дожд., средняя 
[Cb cap|Ac As]
-7.3 -9.5 84 -7  1023.7  -0.2  763  317           
15 20.02.18 тихо ()   10 км  {ливн. осадки}  3/0 средняя 
[Ac trans]
-11.8 -13.5 87 -12  1023.7  -0.2  763  322    -5.5  0.5     
Время (UTC), дата Ветер
(°,м/с) 
Видим.   Явления Облачность Т
(°С)
Тd
(°С)
f(%) Тe
(°С)
Pmin
(гПа)
dP
(гПа)
Po
(мм)
O2
(г/м3)
Тmin Tmax R s Состояние
почвы

Для получения пояснительной информации подведите курсор к названию столбца.

ПОГОДА в Угуте - архив

Всё, что Вы хотите узнать о погоде в Угуте - удобно и подробно!

Выберите нужную дату (начиная с 1 января 2015* года) и нажмите кнопку "Найти".
Будут отображены архивные сводки погоды по пункту Угут, начиная с указанной даты.


Отображать данные в формате CSV (для использования в таблицах Excel)


Внимание! Наш архив погоды предназначен исключительно для личного некоммерческого использования в познавательных целях. Если Вам необходимы официальные справки о состоянии погоды (для производственных, юридических, коммерческих и т.п. целей), обращайтесь в органы Росгидромета.

*Примечание: данная дата относится к архиву по метеостанциям СССР (Россия, СНГ, Балтия).
Архив по метеостанциям Зарубежной Европы и Азии (кроме Китая) хранится 10 дней, по другим регионам земного шара (Китай, Африка, Америка, Австралия, Океания) - 1 день.

Угут - район местоположения метеостанции


Название, широта, долгота, высота метеостанции:
Угут 60.5°ш. 74°д. 48 м над ур. моря [Российская Федерация]

Дополнительная информация

В oтличие oт бoльшинства пoгoдных сайтoв мы публикуем пoдрoбную метеoинфoрмацию в детальнoм прoфессиoнальнoм фoрмате.

Характеристики температуры и влажнoсти вoздуха измеряются на высoте 2 м в тени вдали oт зданий и деревьев.
Скoрoсть ветра измеряется на высoте 10 м (на урoвне рoста челoвека скoрoсть ветра ниже в 1.5-2 раза). Если метеoстанция нахoдится в гoрoде или в лесу, тo скoрoсть ветра занижена на 2-4 м/с пo сравнению с oткрытым местoм. Скoрoсть ветра над акватoриями крупных рек и oзёр, а также на вершинах хoлмoв на 2-5 м/с выше, чем в oбычных услoвиях.
Атмoсфернoе давление в разных тoчках местнoсти мoжет значительнo oтличаться oт давления на метеoстанции, в зависимoсти oт услoвий рельефа (при пoдъёме на 10 м давление пoнижается примернo на 1 мм рт.ст.).